Wind_Speed
28 26 24 22 23 26 26 25 23 22 21 21 22 22 22 22 23 25 26 28 29 30 31 31 30 30 29 28 28 27 26 24 22 21 20 19 18 17 16 15 14 13 12 12 11 11 11 11 11 11 11 11 11 11 11 11 11 11 11 11 11 11 11 12 12 12 12 12 12 12 12 13 13 13 14 14 14 14 14 14 14 14 14 14 15 15
27 25 22 23 26 28 29 27 25 23 23 23 24 26 27 28 29 30 31 32 32 33 32 32 30 29 27 27 27 26 25 23 21 20 19 18 17 16 15 14 13 12 12 11 11 11 11 11 11 11 11 11 11 11 11 11 11 11 11 11 11 12 12 12 12 12 12 12 12 12 13 13 13 13 14 14 14 14 14 14 14 14 14 15 15 15
25 23 23 26 28 30 30 29 27 26 24 24 25 28 30 33 35 36 37 36 35 34 32 31 29 28 27 27 26 25 23 22 20 20 19 17 16 15 14 13 12 12 12 11 11 11 11 11 11 11 11 11 11 11 11 11 11 11 11 11 12 12 12 12 12 12 12 13 13 13 13 13 13 13 14 14 14 14 14 14 14 14 15 15 15 15
25 25 27 28 29 30 31 31 30 28 26 25 26 28 31 33 36 38 39 38 36 34 32 30 28 27 27 26 25 23 22 21 20 19 18 17 15 14 13 13 12 12 11 11 11 11 11 12 12 12 12 12 12 11 12 11 11 11 12 12 12 12 12 12 13 13 13 13 13 13 13 13 13 13 14 14 14 14 14 14 14 15 15 15 15 15
27 28 29 30 31 31 32 33 32 30 28 27 28 29 31 33 34 36 37 37 35 33 31 29 28 27 26 24 23 22 21 20 19 18 17 16 15 14 13 12 12 11 11 11 11 12 12 12 12 12 11 11 11 11 11 11 11 12 12 12 12 12 12 13 13 13 13 13 13 13 13 13 13 14 14 14 14 14 14 14 14 14 15 15 15 15
29 30 31 32 33 33 34 34 33 31 30 30 31 31 32 32 33 33 34 33 32 31 29 28 27 25 24 23 22 20 20 19 18 17 16 15 14 13 13 12 12 11 11 11 12 12 12 12 12 11 11 11 11 11 11 11 11 12 12 12 12 13 13 13 13 13 13 13 13 14 14 14 14 14 14 14 14 14 14 14 14 14 15 15 15 15
31 32 33 34 35 36 36 36 35 33 32 31 32 32 32 32 31 31 31 30 30 29 27 26 25 23 22 21 20 19 18 18 17 16 15 14 13 13 12 12 12 11 11 11 12 12 12 11 11 11 11 11 11 11 11 11 11 12 12 12 13 13 13 13 13 13 13 14 14 14 14 14 14 14 14 14 14 14 14 14 14 14 15 15 15 15
31 33 34 36 38 39 39 38 37 35 33 32 31 31 31 30 30 29 29 28 27 26 25 23 22 21 20 19 19 18 17 17 16 15 14 13 13 13 12 12 12 11 11 12 12 12 11 11 11 11 11 11 11 11 11 11 12 12 12 12 13 13 13 13 13 13 14 14 14 14 14 14 14 14 14 14 14 14 14 14 14 14 14 15 15 15
32 33 35 36 39 40 40 38 37 35 34 32 31 30 29 29 28 28 27 26 25 23 22 21 20 19 19 18 18 17 17 16 15 14 14 13 13 12 12 12 12 12 12 12 12 11 11 11 11 11 11 12 11 12 12 12 12 12 12 13 13 13 13 13 13 13 14 14 14 14 14 14 14 14 14 14 14 14 14 14 14 14 14 15 15 15
31 32 33 35 36 37 37 37 35 33 32 31 29 28 27 26 26 25 24 23 22 21 20 19 19 18 18 17 17 17 16 15 14 14 13 13 12 12 12 11 11 11 11 12 12 11 11 11 11 11 12 12 12 12 12 12 12 12 12 13 13 13 13 13 13 13 14 14 14 14 14 14 14 14 14 14 14 14 14 14 14 14 14 14 15 15
30 31 32 32 33 33 33 33 32 31 30 28 27 26 25 24 24 23 22 21 20 20 19 18 18 17 18 17 17 16 15 14 14 13 12 12 12 12 11 11 11 11 11 11 11 11 11 11 11 12 12 12 12 12 12 12 12 12 13 13 13 13 13 13 13 13 14 14 14 14 14 14 14 14 14 14 14 14 14 14 14 14 14 14 15 15
30 30 30 30 31 31 30 30 29 28 27 26 25 24 23 22 22 21 20 19 19 18 18 18 18 18 18 17 16 15 14 14 13 12 12 12 12 12 11 11 11 11 11 11 11 11 11 11 11 12 12 12 12 12 12 12 12 13 13 13 13 13 13 13 13 13 14 14 14 14 14 14 14 14 14 14 14 14 14 14 14 14 14 15 15 15
29 29 29 29 29 29 28 28 27 26 24 23 23 22 21 21 20 20 19 18 18 18 18 18 18 18 17 16 15 14 13 13 12 12 12 12 12 11 11 11 11 11 11 11 11 11 11 11 12 12 12 12 12 12 12 12 13 13 13 13 13 13 13 13 13 14 14 14 14 14 14 15 15 15 15 15 15 15 15 15 15 15 15 15 15 15
29 29 29 28 28 27 27 26 25 24 23 22 21 21 20 20 20 19 19 18 18 18 18 19 18 17 16 15 14 13 13 12 12 12 12 12 12 12 11 11 11 11 11 11 11 11 12 12 12 12 12 12 12 12 13 13 13 13 13 13 13 13 13 14 14 14 14 14 14 14 15 15 15 15 15 15 15 15 15 15 15 15 15 15 16 16
29 28 28 27 27 26 26 25 24 23 22 21 20 20 20 19 19 19 18 18 18 18 18 18 17 16 15 14 13 13 12 12 12 12 12 12 12 12 11 11 11 12 11 11 11 12 12 12 12 12 12 12 12 13 13 13 13 13 13 13 13 13 14 14 14 14 14 14 15 15 15 15 15 15 15 15 15 15 16 16 16 16 16 16 17 17
28 28 27 26 26 25 25 24 23 22 21 20 20 20 19 19 18 18 18 18 18 18 17 16 15 14 14 13 13 13 12 12 12 12 12 12 12 12 11 11 11 12 12 12 12 12 12 12 12 12 12 13 13 13 13 13 13 13 13 13 14 14 14 14 14 14 15 15 15 15 15 15 15 16 16 16 16 16 16 16 17 17 17 17 18 18
27 27 26 25 25 24 24 23 22 22 21 20 20 19 19 18 18 18 18 17 17 16 15 15 14 14 13 13 13 13 12 12 12 12 12 12 12 12 11 11 11 12 12 12 12 12 12 12 12 12 13 13 13 13 13 13 13 13 14 14 14 14 14 15 15 15 15 15 15 16 16 16 16 16 16 16 17 17 17 17 17 18 18 18 19 19
26 26 25 25 24 24 23 23 22 21 21 20 20 19 18 18 17 17 16 16 15 15 14 14 14 13 13 13 13 13 12 12 12 12 12 12 12 12 11 11 11 12 12 12 12 12 12 12 12 13 13 13 13 13 13 14 14 14 14 14 14 15 15 15 15 15 16 16 16 16 16 16 17 17 17 17 17 18 18 18 18 19 19 19 20 20
26 25 25 24 24 23 23 22 22 21 21 20 19 18 17 16 16 15 15 14 14 14 14 14 13 13 13 13 13 13 12 12 12 12 12 12 12 12 12 11 12 12 12 13 13 13 13 13 13 13 13 13 14 14 14 14 14 14 15 15 15 15 15 16 16 16 16 16 16 17 17 17 17 17 18 18 18 18 19 19 19 20 20 20 21 21
25 25 24 24 23 23 22 22 22 21 20 19 18 17 16 15 14 14 14 14 14 14 14 13 13 13 13 13 13 13 13 12 12 12 12 12 12 12 12 12 12 12 13 13 13 13 13 13 13 13 14 14 14 14 14 14 15 15 15 15 16 16 16 16 16 16 17 17 17 17 17 18 18 18 18 19 19 19 20 20 20 21 21 21 21 22
25 25 24 24 23 22 22 21 21 20 19 17 16 15 14 13 13 13 14 14 14 14 14 14 13 13 13 13 13 13 13 12 12 12 12 12 12 12 12 12 12 13 13 14 14 13 13 13 14 14 14 14 14 15 15 15 15 16 16 16 16 16 16 17 17 17 17 17 18 18 18 18 18 19 19 19 20 20 21 21 21 22 22 22 22 22
25 24 24 24 23 22 21 21 20 18 17 15 14 13 13 13 13 14 14 14 14 14 14 13 13 13 13 13 13 13 13 12 12 12 12 12 13 13 13 13 13 13 14 14 14 14 14 14 14 14 14 15 15 15 15 16 16 16 16 17 17 17 17 17 17 18 18 18 18 18 19 19 19 19 20 20 21 21 21 22 22 22 23 23 23 23
24 24 24 23 22 21 20 19 17 16 14 13 13 12 13 14 14 14 14 14 14 14 14 13 14 14 14 13 14 13 13 13 13 13 13 13 13 13 13 13 14 14 14 15 14 14 14 14 15 15 15 15 15 16 16 16 17 17 17 17 17 17 18 18 18 18 18 19 19 19 19 20 20 20 21 21 21 22 22 22 23 23 23 23 23 23
24 23 23 22 21 19 18 16 15 14 13 12 12 13 14 15 15 15 14 14 14 14 14 14 14 14 14 14 14 13 13 13 13 13 13 13 13 14 14 14 14 14 15 15 15 14 14 15 15 15 16 16 16 16 17 17 17 17 17 18 18 18 18 18 19 19 19 19 20 20 20 20 21 21 21 22 22 22 23 23 23 23 23 23 23 23
23 22 21 20 18 17 15 14 13 12 12 13 14 15 15 15 15 15 15 15 15 14 14 14 14 14 14 14 14 14 14 14 13 13 13 14 14 14 14 14 14 15 15 15 15 15 15 15 16 16 16 17 17 17 17 17 18 18 18 18 18 18 19 19 19 19 20 20 20 20 21 21 21 22 22 22 23 23 23 23 23 23 23 23 23 23
21 20 19 17 16 15 14 13 12 12 13 14 16 16 16 16 15 15 15 15 14 14 14 14 13 13 14 14 14 14 14 14 14 14 14 14 14 14 14 14 14 15 15 15 15 15 15 16 16 17 17 17 17 18 18 18 18 18 18 19 19 19 19 19 20 20 20 20 21 21 21 22 22 22 23 23 23 23 23 23 23 23 23 23 23 23
20 18 17 16 15 15 14 13 12 12 14 16 17 17 16 16 15 15 14 14 14 14 14 13 13 13 14 14 14 14 14 14 14 14 14 14 14 14 14 14 14 15 15 16 16 16 16 16 17 17 18 18 18 18 18 18 19 19 19 19 19 19 20 20 20 20 21 21 21 21 22 22 22 22 23 23 23 23 23 23 23 23 23 23 24 24
18 17 16 16 16 15 15 13 13 13 16 18 18 17 16 15 15 14 14 14 14 14 13 13 13 13 13 13 14 14 14 14 14 14 14 14 14 14 14 14 15 15 15 16 16 17 17 17 17 18 18 18 19 19 19 19 19 19 19 20 20 20 20 20 21 21 21 21 21 22 22 22 22 22 23 23 23 23 23 23 24 24 24 24 24 24
18 17 17 17 16 15 14 13 13 15 17 18 17 16 15 15 14 14 14 14 14 14 13 14 13 13 13 13 14 14 14 14 14 14 14 14 14 14 14 14 15 15 16 16 17 17 17 17 18 18 18 19 19 19 19 19 20 20 20 20 20 20 21 21 21 21 21 21 22 22 22 22 22 22 23 23 23 23 24 24 24 24 24 24 24 23
18 17 17 16 15 14 13 13 15 17 18 17 16 15 15 14 14 14 14 14 14 14 14 13 13 13 13 13 13 13 13 13 13 13 13 14 14 14 15 15 15 16 16 16 17 17 18 18 18 18 18 19 19 19 20 20 20 20 20 20 20 21 21 21 21 21 21 22 22 22 22 22 22 23 23 23 24 24 24 24 24 23 23 23 23 23
18 17 16 15 14 13 14 16 17 18 17 16 16 15 15 14 14 14 14 14 14 14 13 13 13 13 13 13 13 13 13 13 13 13 13 14 14 15 15 15 16 16 17 17 17 17 18 18 19 18 18 19 19 20 20 20 20 20 20 20 21 21 21 21 21 21 21 22 22 22 22 22 23 23 23 24 24 24 24 23 23 23 23 23 22 22
18 17 15 14 14 14 16 17 17 17 16 16 15 15 14 14 14 14 14 13 13 13 13 13 13 13 13 13 13 13 13 13 13 14 14 14 15 16 16 16 16 17 17 18 18 18 18 19 19 19 19 19 19 20 20 20 20 20 20 20 21 21 21 21 21 21 21 21 22 22 22 23 23 24 24 24 24 24 23 23 23 22 22 22 22 22
17 15 15 14 15 16 17 17 17 16 16 15 15 14 14 14 14 13 13 13 13 13 13 12 12 12 12 12 12 13 13 13 14 14 15 15 16 16 17 17 17 17 18 18 19 19 19 19 19 20 20 20 20 20 20 21 21 20 20 20 20 21 21 21 21 21 21 21 22 22 23 23 23 24 24 24 24 23 23 23 22 22 21 21 21 21
15 15 15 15 16 16 17 16 16 16 16 15 15 14 14 14 13 13 13 13 12 12 12 12 12 12 12 12 12 13 13 14 14 15 15 16 16 17 17 18 18 18 19 19 19 19 20 20 20 20 20 20 20 20 20 21 21 20 20 20 20 20 21 21 21 21 21 22 22 22 23 23 23 23 23 23 23 23 23 22 22 21 21 21 21 21
15 15 16 16 16 16 16 16 16 16 15 15 14 14 13 13 13 13 12 12 12 12 12 12 12 12 12 12 12 13 13 14 15 15 16 16 17 18 18 18 19 19 19 19 20 20 20 20 21 21 20 20 20 20 20 20 20 20 20 20 20 20 21 21 21 21 21 22 22 22 22 23 23 23 23 23 23 23 22 22 22 22 21 21 21 21
15 16 16 16 16 16 16 16 16 15 15 14 14 13 13 13 12 12 12 12 12 12 12 11 11 11 11 12 12 13 14 14 15 16 16 16 17 18 18 19 19 19 19 20 20 20 20 21 21 21 21 20 20 20 20 20 20 20 20 20 20 20 21 21 21 21 21 21 22 22 22 22 23 23 23 23 23 23 23 22 22 22 22 21 21 21
16 16 16 16 16 16 16 15 15 15 14 14 13 13 13 12 12 12 12 12 12 11 11 11 11 11 11 11 12 13 13 14 15 15 16 16 17 17 18 19 19 19 19 20 20 20 20 21 21 21 21 21 20 20 20 20 20 20 20 20 21 21 21 21 21 21 21 21 22 22 22 22 22 23 23 23 23 23 23 23 23 23 22 22 22 22
16 16 16 16 16 16 15 15 14 14 13 13 13 12 12 12 12 12 12 11 11 11 11 10 10 10 11 11 11 12 13 13 14 15 16 16 17 17 18 18 19 19 19 20 20 20 20 20 21 21 21 21 21 21 20 20 20 20 21 21 21 21 22 22 22 22 22 21 22 22 22 22 23 23 23 23 23 23 23 23 23 23 23 23 23 22
16 16 16 16 16 15 15 14 14 13 13 13 13 12 12 12 12 12 12 11 11 10 10 10 10 10 10 11 11 12 13 14 14 15 16 16 17 17 18 18 19 19 19 20 20 20 20 20 21 21 21 21 21 21 21 21 21 21 21 22 22 22 23 23 23 23 22 22 22 22 22 23 23 23 23 24 24 24 24 24 24 24 24 23 23 23
16 16 16 16 15 15 14 14 13 13 13 13 13 12 12 12 12 12 11 11 11 10 10 10 10 10 11 11 12 13 13 14 15 16 16 17 18 18 18 19 19 19 20 20 20 20 20 21 21 21 22 22 22 23 23 23 23 23 23 23 23 23 24 24 24 24 23 23 23 23 23 23 24 24 24 24 24 24 24 24 24 24 24 24 24 24
16 16 16 15 15 14 14 13 13 13 13 13 13 12 12 12 12 12 11 11 11 10 10 11 11 11 12 12 13 13 14 15 15 16 17 17 18 18 19 19 19 19 20 20 20 20 21 21 21 22 22 23 23 24 24 24 24 24 24 24 24 25 25 25 25 25 25 25 24 24 24 24 24 25 25 25 25 25 25 24 24 24 25 25 25 24
16 15 15 15 14 14 13 13 13 13 13 13 13 12 12 12 12 12 12 11 11 11 11 12 12 12 13 13 14 14 15 15 16 16 17 18 18 19 19 19 20 20 20 20 20 21 21 21 21 22 22 23 24 24 25 26 26 26 26 26 26 26 26 26 27 27 27 26 26 26 25 25 26 26 26 26 26 26 25 25 25 25 25 25 25 25
15 15 15 14 14 13 13 13 13 13 13 13 13 13 13 13 12 12 12 12 12 12 13 13 13 13 14 14 15 15 15 16 16 17 18 18 19 19 20 20 20 20 20 20 20 21 21 21 22 22 23 23 24 25 25 26 27 27 27 27 27 27 27 27 28 28 28 28 28 27 27 27 27 27 27 27 27 27 26 26 25 25 25 25 25 25
15 14 14 14 13 13 13 13 13 13 13 13 13 13 13 13 13 13 13 13 13 14 14 14 14 15 15 15 16 16 16 17 17 18 19 19 20 20 20 21 21 21 21 21 21 21 21 22 22 23 23 24 24 25 26 27 28 28 28 28 28 28 28 28 28 29 29 29 29 29 29 28 28 28 29 28 28 28 27 27 26 26 26 26 26 26
14 14 14 14 13 13 13 13 13 13 13 13 13 13 13 13 14 14 14 14 14 14 15 15 15 16 16 16 17 17 17 18 19 19 20 20 21 21 21 21 21 22 22 21 21 21 22 22 23 23 24 24 25 26 26 27 28 29 29 29 29 29 28 29 29 29 29 30 30 30 30 30 30 30 30 30 30 29 29 28 27 27 27 26 26 26
14 14 14 13 13 13 13 13 13 13 13 13 13 14 14 14 14 14 15 15 15 15 15 16 16 16 17 17 18 18 18 19 19 20 21 21 22 22 22 22 22 22 22 22 22 22 22 22 23 24 24 25 25 26 27 28 29 30 30 30 30 29 29 29 29 30 30 30 30 31 31 31 31 31 31 31 31 31 30 29 29 28 27 27 27 27
14 14 13 13 13 13 13 13 13 13 13 13 14 14 14 15 15 15 15 15 15 16 16 16 17 17 17 18 19 19 19 20 20 21 21 22 22 22 22 22 22 22 22 22 22 22 23 23 23 24 24 25 25 26 27 28 29 30 30 30 30 30 30 30 30 31 31 31 31 31 31 32 32 32 32 32 32 31 31 31 30 29 28 28 27 27
14 14 13 13 13 13 13 13 13 13 14 14 14 15 15 15 15 16 16 16 16 16 16 17 17 17 18 19 19 20 20 21 21 22 22 22 22 22 22 22 22 22 22 22 22 22 23 23 23 23 24 24 25 26 27 28 29 30 30 30 30 30 30 31 31 32 32 32 32 32 32 32 32 32 32 32 32 32 32 31 31 30 29 28 28 27
14 14 14 13 13 13 13 14 14 14 14 15 15 15 16 16 16 16 16 16 16 16 16 17 17 18 19 19 20 21 21 22 22 22 22 22 22 22 22 22 22 22 23 23 23 23 23 23 23 23 24 24 25 25 26 27 28 29 30 30 30 31 31 31 32 32 32 32 33 33 33 33 33 33 33 33 32 32 32 31 31 30 30 29 28 28
14 14 14 14 14 14 14 14 14 15 15 15 15 15 16 16 16 16 16 16 16 16 17 17 18 19 19 20 21 22 22 23 23 23 23 23 22 22 22 22 22 23 23 24 24 24 24 24 24 24 25 25 26 26 26 27 28 29 30 30 30 31 31 32 32 33 33 33 33 33 33 33 33 33 33 33 32 32 31 31 31 30 30 29 28 28
14 14 14 14 14 14 14 14 15 15 15 15 15 15 15 15 16 16 16 16 16 17 18 18 19 20 20 21 22 22 23 23 24 24 24 24 23 22 22 23 23 24 24 25 25 25 25 25 24 24 25 26 27 27 27 28 28 28 29 30 30 31 31 32 32 32 33 33 33 33 33 33 33 33 33 32 32 31 30 30 30 30 29 29 29 28
Wind_Direction
285 284 283 282 281 279 279 280 281 281 281 280 277 274 270 267 268 271 276 280 284 288 292 296 299 302 303 303 302 300 298 294 292 290 289 287 285 282 279 275 271 266 262 259 257 256 255 254 254 254 255 256 257 258 259 260 262 263 264 266 267 268 269 270 271 272 272 272 272 272 272 272 273 274 276 277 277 277 277 277 278 278 280 281 283 285
284 283 281 277 272 272 274 278 278 277 276 275 274 273 273 274 275 278 280 283 286 290 294 297 300 301 301 301 299 297 294 291 289 288 287 285 282 279 276 271 267 262 259 257 255 255 255 255 255 256 257 258 259 260 262 263 264 266 267 268 269 271 272 273 274 274 275 275 275 274 274 274 274 275 275 276 276 276 276 276 277 277 278 280 281 282
284 281 274 269 267 268 271 274 275 274 274 273 273 273 274 276 278 281 283 286 289 293 296 299 300 300 299 297 295 293 290 288 287 286 285 282 280 276 272 267 263 259 257 255 255 254 255 255 256 257 259 260 261 262 264 265 266 268 269 270 272 273 274 276 276 277 277 277 277 277 276 276 275 275 275 276 276 276 276 276 277 277 278 279 280 281
279 273 268 266 266 267 269 272 274 275 277 278 278 278 277 277 278 280 283 287 291 295 297 298 298 297 295 293 291 289 287 286 285 284 282 279 276 273 268 264 260 257 256 255 255 255 256 257 258 259 261 262 263 265 266 267 269 270 272 273 274 276 277 278 279 279 280 279 279 279 278 278 277 276 276 276 276 276 276 277 277 278 278 279 280 281
273 268 266 266 265 266 268 270 273 277 282 286 286 285 282 280 279 280 282 286 290 293 294 294 293 292 291 289 287 286 285 284 283 281 279 276 273 269 265 261 258 257 256 255 256 257 257 259 261 262 264 265 266 267 269 271 272 274 275 277 278 279 280 280 281 281 281 281 281 280 279 278 278 277 276 276 276 276 277 277 277 278 279 280 281 281
270 267 267 266 266 266 269 271 275 281 287 290 290 288 286 283 282 281 282 285 287 289 290 290 289 288 286 285 284 283 283 282 280 278 276 272 269 266 262 260 258 257 257 257 257 258 260 262 263 265 266 268 269 271 273 274 276 277 278 279 280 281 281 282 282 282 282 282 281 281 280 279 278 277 276 276 276 276 277 277 278 278 279 280 281 281
271 267 266 266 266 268 271 275 280 285 288 289 288 286 285 284 283 283 283 284 285 286 286 286 285 284 283 282 282 282 281 279 277 275 272 269 265 263 260 259 258 258 258 259 259 261 262 264 266 267 269 270 272 274 275 277 278 279 280 281 281 282 282 282 282 282 282 281 281 280 280 279 278 278 277 277 277 277 277 277 278 279 279 280 280 281
271 268 266 265 267 270 273 277 282 285 286 285 284 283 283 282 282 282 283 283 283 283 283 282 282 281 281 281 281 280 279 276 274 271 268 265 262 260 259 259 259 260 260 261 262 264 265 267 268 270 271 273 274 275 277 278 279 280 280 281 281 281 282 281 281 281 281 281 280 280 280 279 279 278 278 278 278 277 278 278 278 279 279 280 280 280
273 270 267 266 267 270 274 277 279 281 281 281 281 281 280 281 281 281 281 282 281 281 280 280 280 280 281 281 280 278 275 272 269 266 263 261 260 259 259 259 260 261 261 263 265 266 268 269 271 272 273 275 276 277 278 279 280 280 280 281 281 281 281 281 281 281 281 280 280 280 279 279 279 279 279 279 279 279 279 279 279 279 279 279 280 280
274 272 270 269 269 271 273 275 276 277 277 277 278 278 278 279 279 279 279 279 279 278 278 278 279 280 280 279 277 274 271 268 265 262 260 258 257 257 258 259 260 261 262 264 266 268 269 271 272 273 275 276 277 278 279 280 280 280 280 281 281 281 281 281 281 281 280 280 280 280 280 280 280 280 280 279 279 279 279 279 279 279 279 279 279 280
275 274 272 272 271 271 272 273 273 274 274 274 275 276 276 276 276 276 276 276 276 277 277 277 278 278 276 275 272 269 266 263 260 258 257 256 256 256 257 258 259 261 262 264 266 268 269 270 272 273 275 276 277 278 279 280 280 280 280 281 280 281 281 281 280 280 280 280 280 280 280 280 280 280 280 280 280 279 279 279 279 279 279 279 279 279
276 274 273 272 272 271 271 271 271 271 272 272 273 273 273 273 273 273 273 273 273 274 274 275 274 273 272 270 267 263 260 258 256 255 254 254 255 256 257 258 259 260 262 264 265 267 268 269 271 272 274 275 276 277 278 279 279 279 279 280 280 280 280 280 280 280 280 280 280 280 280 280 280 280 280 280 279 279 279 279 279 279 279 279 279 279
275 274 273 272 271 270 270 269 269 269 269 270 270 270 270 270 270 271 271 270 270 270 271 272 271 270 267 265 261 258 255 253 252 252 252 253 254 255 256 258 259 260 261 262 264 265 266 268 269 271 272 274 275 276 277 277 277 278 278 278 278 279 278 278 279 279 279 279 279 279 279 279 279 279 280 280 279 279 279 279 279 279 279 279 280 280
274 273 272 271 270 269 269 268 267 267 267 266 266 266 266 268 270 271 271 271 270 270 270 270 269 266 263 259 255 252 251 250 250 251 252 254 255 256 256 257 258 259 260 261 262 263 265 266 268 269 271 272 273 274 275 276 276 277 277 277 278 278 278 278 278 278 278 278 278 279 279 279 279 279 279 279 279 279 279 280 280 280 280 280 281 281
273 272 271 270 269 268 267 266 265 265 264 263 263 265 267 269 271 272 272 272 271 270 269 267 265 261 257 254 251 249 249 249 251 252 254 255 256 257 257 257 258 258 259 259 260 261 263 265 267 269 270 272 273 274 275 275 276 277 277 278 278 278 278 278 278 278 278 278 278 278 278 279 279 279 279 279 279 280 280 280 281 281 281 282 282 283
272 271 270 269 268 267 266 264 263 262 262 262 263 265 267 269 271 271 272 271 270 268 266 262 258 255 252 250 248 248 249 250 252 253 255 256 257 257 257 257 257 258 259 259 260 261 263 265 267 269 271 272 273 274 275 276 276 277 278 278 278 278 279 279 279 278 278 278 278 278 278 278 278 279 279 279 279 280 280 281 281 282 283 283 284 284
270 269 268 267 266 265 264 262 262 261 261 262 264 265 267 268 269 270 269 268 265 262 258 254 251 250 249 249 249 250 251 252 253 255 256 256 257 258 258 257 258 259 260 261 262 263 265 267 269 271 272 273 274 275 276 276 277 278 278 278 278 278 279 279 278 278 278 278 278 278 278 278 278 278 279 279 279 280 281 281 282 283 284 284 285 285
269 268 267 265 264 263 262 261 261 262 262 263 265 266 267 267 267 267 265 262 258 254 250 248 246 245 246 248 250 252 253 253 254 255 256 257 257 258 258 258 259 260 262 263 264 266 268 270 271 272 273 274 274 275 276 276 277 277 277 278 278 278 278 278 278 278 278 278 277 277 277 278 278 278 279 279 280 280 281 282 283 283 284 285 285 285
267 266 265 263 262 261 261 261 261 262 263 264 265 266 266 265 263 261 257 253 249 246 244 243 244 245 246 248 251 253 254 254 254 255 256 256 257 258 258 258 259 260 262 264 266 267 269 271 272 272 273 274 274 275 275 276 276 276 277 277 277 277 277 277 277 277 277 277 277 277 277 277 278 278 279 279 280 281 282 283 283 284 284 285 285 285
265 264 263 262 261 260 260 260 261 263 264 264 264 263 262 260 256 253 249 245 243 242 242 242 244 246 248 249 251 253 254 254 254 254 255 256 257 257 258 258 259 261 263 264 266 268 269 270 271 272 272 273 273 274 274 275 275 275 276 276 276 276 276 276 276 276 276 276 276 276 277 277 278 279 279 280 281 282 283 284 284 285 285 286 286 286
262 262 261 260 260 259 260 260 261 262 262 261 260 259 257 253 249 245 242 241 240 241 242 243 245 247 248 250 251 252 254 253 253 253 254 255 256 257 258 259 260 262 263 265 266 268 269 269 270 270 271 272 272 273 274 274 274 275 275 275 275 275 275 275 275 275 275 275 276 276 277 278 278 279 280 281 282 283 284 285 286 286 286 286 286 286
260 260 260 259 259 259 259 260 259 259 257 256 254 252 249 246 244 241 240 240 240 242 243 244 246 247 249 249 251 252 253 253 252 253 254 255 256 258 259 260 261 262 264 265 267 268 268 269 269 270 271 271 272 272 273 273 274 274 274 275 275 275 275 275 275 275 276 276 276 277 278 279 280 281 282 283 284 285 286 286 287 287 287 287 287 287
259 259 258 258 258 258 257 256 255 253 251 250 248 246 243 241 240 239 239 240 241 242 244 245 246 248 249 249 250 252 252 253 253 254 255 256 257 259 261 262 263 264 265 267 268 269 269 269 270 270 271 271 272 272 273 273 274 274 274 274 275 275 275 275 275 276 276 277 278 279 280 281 281 283 284 285 286 287 287 288 288 288 288 288 288 287
259 258 257 256 256 255 252 250 247 246 246 246 245 242 241 239 238 238 239 241 242 243 245 246 247 248 249 250 251 252 253 254 255 256 257 259 260 262 264 265 265 266 267 269 270 270 271 271 271 272 272 272 272 273 273 273 273 274 274 274 275 275 275 276 277 277 278 279 280 281 282 283 284 285 286 287 288 288 289 289 289 289 289 289 288 288
258 256 254 253 250 248 244 241 240 241 243 245 244 243 240 239 239 240 241 243 244 245 246 247 247 248 249 251 252 253 255 256 257 259 260 262 263 265 266 267 268 269 270 272 273 273 273 273 273 273 273 273 273 273 273 274 274 274 274 275 275 276 276 277 278 279 280 281 282 283 284 285 286 287 288 289 289 290 290 290 291 291 290 290 289 288
254 251 248 245 241 237 234 232 233 236 240 243 244 242 241 240 241 242 243 244 245 246 246 247 248 249 251 253 254 256 258 259 261 262 264 265 266 268 269 270 271 272 273 275 275 276 275 275 275 275 275 275 275 275 274 275 275 275 275 276 276 277 278 278 279 281 282 283 284 285 286 287 288 289 289 290 291 291 292 292 292 292 291 290 289 288
247 243 238 234 230 226 224 222 224 230 237 242 243 242 241 242 243 244 244 246 246 247 248 248 249 251 253 254 256 258 261 263 264 265 267 268 269 270 272 273 274 275 276 277 277 277 277 277 277 277 276 276 276 276 276 276 276 276 277 277 278 278 279 280 281 282 283 284 285 286 287 288 289 290 290 291 292 292 293 293 293 292 292 291 289 288
238 233 228 225 223 221 218 216 220 229 238 241 242 242 242 243 244 245 246 247 248 249 249 250 251 253 255 256 258 261 263 265 266 268 269 271 272 273 274 276 277 277 278 278 279 279 278 278 278 278 278 278 278 278 278 278 278 278 279 279 280 280 281 282 283 283 284 285 286 287 288 289 290 290 291 292 292 293 293 293 293 292 291 290 289 288
229 225 223 222 222 220 218 219 226 235 240 241 242 242 244 245 245 246 247 249 250 250 251 252 254 255 257 259 261 263 265 266 268 270 272 273 275 276 277 278 279 279 279 279 280 280 280 279 279 279 279 279 279 279 279 279 280 280 280 281 281 282 283 283 284 285 286 286 287 288 289 290 291 292 292 293 293 293 293 293 293 292 291 290 289 288
226 225 224 223 222 220 222 228 235 239 241 241 242 243 245 246 247 247 249 250 251 252 254 255 256 258 259 261 263 265 267 268 270 272 275 276 278 279 280 280 280 280 280 280 281 281 281 281 281 281 280 281 281 281 281 281 281 282 282 282 283 283 284 284 285 286 287 288 289 289 290 291 292 293 293 293 294 294 293 293 292 291 290 289 288 287
228 227 225 222 221 223 229 235 239 240 241 242 243 244 246 247 248 249 251 252 253 254 256 257 259 260 262 264 266 268 271 273 274 276 278 280 281 281 282 282 282 282 282 281 282 282 283 283 283 283 282 282 282 282 282 282 282 283 283 283 283 284 284 285 286 287 287 288 289 290 291 292 293 293 294 294 294 293 293 292 291 290 289 288 287 286
229 226 222 221 224 230 236 238 240 241 242 243 244 245 246 248 249 251 252 253 255 256 258 259 261 263 265 267 270 273 275 278 279 281 282 283 283 283 284 283 283 283 283 283 283 283 283 284 284 284 284 284 284 283 283 283 283 283 283 283 284 284 284 285 286 287 288 289 290 291 292 293 294 294 294 294 294 294 293 292 291 290 288 287 286 285
224 221 221 225 231 235 238 239 240 241 242 244 245 246 247 249 250 251 253 254 255 257 259 261 263 265 268 271 274 278 280 282 283 284 285 285 285 286 286 286 285 285 285 285 285 285 285 285 285 285 285 285 284 284 284 283 283 283 283 283 283 284 285 285 286 287 288 290 291 292 293 294 295 295 295 295 294 294 293 292 290 289 287 286 284 283
217 220 225 231 235 237 238 238 240 241 243 244 245 246 247 248 249 251 252 254 255 257 260 262 265 268 272 275 279 282 284 285 286 287 287 287 287 288 288 288 287 287 287 287 287 287 287 287 286 286 286 285 285 284 284 283 283 283 283 283 283 284 285 286 287 288 289 290 292 293 294 295 295 296 296 295 295 294 293 292 290 289 287 285 283 282
219 225 231 234 236 236 237 239 240 242 243 244 244 245 245 246 248 249 251 253 256 259 262 265 268 272 275 279 282 285 286 287 287 288 289 289 289 289 290 289 289 289 289 289 289 289 289 289 288 287 287 286 285 284 284 283 283 283 283 283 284 284 285 286 287 288 290 291 293 294 295 295 296 296 296 296 296 295 294 292 290 288 287 285 283 281
227 231 234 235 236 236 238 239 240 241 242 243 243 244 244 245 247 249 252 255 258 261 265 268 272 276 280 283 285 287 288 289 290 291 292 292 292 291 291 291 291 291 291 291 291 291 291 291 290 289 288 287 286 285 284 284 284 284 284 284 284 284 285 286 287 288 290 291 292 294 295 295 296 296 297 296 296 295 294 292 290 289 287 285 283 281
233 234 235 236 237 238 239 239 240 241 241 242 243 243 245 246 248 251 254 257 260 263 267 271 276 280 284 288 290 291 292 294 295 296 296 296 296 295 294 294 294 294 293 293 293 293 292 292 291 291 290 289 287 286 285 285 284 284 284 284 284 285 285 286 287 288 289 290 291 293 294 295 296 296 296 296 295 294 293 292 290 289 287 285 283 282
235 236 236 237 238 238 239 239 239 239 240 241 242 244 246 248 251 253 256 259 262 265 269 273 278 283 288 291 294 296 297 299 300 300 301 301 301 300 298 297 297 297 296 295 294 294 293 293 292 291 291 290 289 288 287 286 285 285 285 285 285 285 285 286 286 287 288 289 290 292 293 294 294 295 295 295 294 294 293 292 290 289 287 286 284 282
236 236 237 237 237 237 237 237 237 237 238 240 242 245 248 250 253 255 258 260 263 267 271 276 282 287 291 294 297 299 300 301 302 303 303 303 303 302 301 299 299 298 298 297 296 295 294 293 293 292 292 291 291 290 289 288 287 286 286 286 286 286 286 286 286 287 287 288 289 290 292 293 293 294 294 294 293 293 292 291 290 289 287 286 285 283
235 236 236 236 235 234 234 234 235 236 238 241 244 247 250 252 254 256 259 261 265 270 274 280 285 290 293 296 298 300 301 302 303 304 304 304 304 303 302 301 299 298 298 297 296 296 295 294 294 293 293 292 292 292 291 290 289 288 287 286 286 286 286 286 287 287 287 288 289 290 291 292 292 293 293 293 292 292 291 290 289 288 287 286 284 283
234 234 234 233 233 232 232 233 235 237 240 243 246 249 251 253 255 257 259 263 267 272 278 283 287 291 294 296 298 299 301 302 304 304 305 305 305 304 303 301 299 298 297 296 295 295 294 294 294 294 294 293 293 293 292 291 290 289 288 287 287 287 287 287 287 287 288 288 289 290 290 291 292 292 292 292 292 291 290 290 288 287 286 285 284 283
232 232 232 231 231 231 233 234 237 240 243 245 248 249 251 253 255 257 261 265 269 274 278 283 286 289 291 294 295 297 299 301 303 304 305 305 305 304 303 302 299 297 296 295 294 293 293 293 293 293 293 293 293 293 293 292 291 290 290 289 288 288 288 288 288 288 288 288 289 290 290 291 291 291 291 291 291 290 290 289 287 286 285 284 283 282
230 230 230 230 231 232 234 237 240 242 245 247 249 250 252 254 256 259 263 267 271 275 279 282 285 287 289 291 292 294 296 298 300 302 304 305 305 304 304 302 300 298 296 294 293 293 293 293 292 292 292 293 293 293 292 292 292 291 291 290 290 289 289 288 288 288 288 289 289 290 290 291 291 291 291 290 290 289 288 287 286 285 284 283 282 281
230 230 231 231 233 235 237 240 242 245 247 249 251 253 255 257 259 262 265 269 273 276 279 282 284 286 287 288 290 292 294 296 298 300 302 303 304 304 303 302 301 299 297 295 294 294 294 294 293 293 293 293 293 293 292 292 292 292 292 292 292 291 290 289 289 288 288 288 289 289 290 290 290 290 290 290 289 288 287 286 284 283 282 281 281 280
231 232 233 234 236 238 240 243 246 248 250 252 254 256 258 260 263 265 268 272 275 277 279 281 283 285 286 286 288 290 292 294 297 299 301 302 302 302 302 301 300 299 298 297 296 296 295 295 295 295 295 295 294 293 293 292 292 293 293 293 293 293 292 291 290 289 288 288 288 289 289 289 289 290 289 289 289 288 286 285 283 281 280 280 279 278
233 234 236 238 240 243 245 248 250 253 255 257 259 261 262 265 266 269 271 273 275 278 279 281 283 284 285 286 287 289 292 294 296 297 299 300 300 301 300 300 299 298 298 298 297 297 297 297 297 297 297 297 296 295 294 293 293 293 293 294 294 294 294 293 291 290 289 289 289 289 289 289 289 288 288 288 287 287 286 284 283 281 279 278 277 276
236 238 240 243 245 248 250 253 255 258 259 261 263 264 266 267 269 271 273 274 276 278 280 281 283 284 285 287 288 290 291 293 294 295 296 297 298 298 297 297 296 295 295 294 295 295 296 297 297 297 297 296 295 294 294 293 293 293 293 294 294 294 294 293 292 291 291 290 290 289 289 289 288 287 287 287 286 286 285 284 282 281 279 277 276 275
239 242 244 247 250 252 255 257 259 261 262 264 265 266 268 269 271 272 274 276 278 279 281 283 285 286 287 288 289 290 290 291 292 292 293 293 293 294 293 292 292 291 291 291 291 292 293 294 295 295 295 294 293 292 292 292 292 293 293 294 294 294 294 294 293 293 292 292 292 291 290 289 288 287 287 286 285 284 284 283 282 281 279 277 276 275
242 244 247 249 252 255 257 259 261 262 264 265 266 267 269 270 272 274 276 278 280 282 284 285 286 287 287 288 288 288 289 289 289 289 290 290 290 290 290 289 289 289 289 290 290 291 292 292 293 293 293 292 291 290 290 291 292 292 293 294 295 295 295 295 295 295 294 294 293 292 291 290 289 287 286 285 284 284 283 282 282 281 279 278 276 275
244 246 248 251 253 256 258 260 262 263 264 265 267 269 270 272 275 277 279 281 283 285 286 287 287 287 287 287 287 287 288 289 289 290 290 289 289 289 290 290 290 291 291 292 292 292 292 292 292 292 291 291 290 290 290 291 292 293 294 295 296 296 296 296 295 295 295 294 293 292 291 290 289 287 286 285 284 283 282 282 281 280 280 279 277 276
245 247 249 252 254 257 259 260 262 263 265 266 268 270 272 274 277 279 281 284 285 287 287 287 287 287 287 287 288 289 291 292 292 292 292 291 291 291 291 291 292 293 293 293 293 293 293 293 293 293 293 292 292 292 292 293 293 294 295 295 295 295 295 295 294 294 293 293 292 291 290 289 288 287 286 285 284 283 282 281 280 279 279 279 278 277
Height
3101 3100 3100 3101 3102 3101 3100 3099 3099 3100 3100 3100 3100 3099 3099 3098 3098 3097 3097 3096 3096 3095 3095 3094 3094 3094 3093 3093 3092 3092 3092 3092 3092 3092 3092 3091 3091 3091 3091 3091 3091 3091 3091 3091 3091 3091 3091 3092 3092 3092 3092 3092 3093 3093 3093 3093 3093 3093 3093 3093 3093 3094 3094 3094 3094 3094 3094 3095 3095 3095 3095 3095 3095 3095 3095 3095 3095 3095 3095 3095 3095 3095 3095 3095 3095 3095
3099 3098 3099 3100 3099 3098 3097 3097 3097 3097 3097 3097 3097 3097 3097 3096 3096 3095 3095 3095 3094 3093 3093 3092 3092 3092 3091 3091 3091 3091 3091 3090 3090 3090 3090 3090 3090 3090 3090 3090 3090 3090 3090 3090 3090 3090 3090 3091 3091 3091 3091 3091 3091 3091 3092 3092 3092 3092 3092 3092 3092 3092 3092 3093 3093 3093 3093 3093 3093 3094 3094 3094 3094 3094 3094 3094 3094 3094 3094 3094 3094 3094 3094 3094 3094 3093
3096 3096 3097 3097 3096 3095 3095 3095 3095 3095 3095 3095 3095 3095 3095 3095 3094 3093 3093 3092 3091 3091 3090 3090 3090 3090 3089 3089 3089 3089 3089 3089 3089 3089 3088 3088 3088 3088 3088 3088 3088 3088 3089 3089 3089 3089 3090 3090 3090 3090 3090 3090 3090 3090 3090 3090 3091 3091 3091 3091 3091 3091 3091 3091 3092 3092 3092 3092 3092 3092 3092 3092 3092 3093 3093 3093 3093 3093 3093 3093 3093 3093 3093 3092 3092 3092
3095 3095 3094 3094 3094 3094 3093 3093 3093 3092 3092 3092 3092 3092 3092 3092 3092 3091 3090 3090 3089 3089 3088 3088 3088 3088 3088 3087 3087 3087 3087 3087 3087 3087 3087 3086 3086 3087 3087 3087 3087 3087 3087 3088 3088 3088 3088 3088 3089 3089 3089 3089 3089 3089 3089 3090 3090 3090 3090 3090 3090 3090 3090 3090 3090 3090 3090 3091 3091 3091 3091 3091 3091 3091 3091 3091 3091 3091 3091 3091 3091 3091 3091 3091 3091 3091
3092 3092 3091 3091 3091 3091 3091 3091 3090 3090 3090 3090 3090 3090 3090 3090 3089 3089 3088 3088 3088 3087 3087 3086 3086 3086 3086 3086 3086 3086 3086 3086 3085 3085 3085 3085 3085 3085 3085 3085 3086 3086 3086 3086 3087 3087 3087 3087 3087 3087 3088 3088 3088 3088 3088 3088 3088 3088 3088 3088 3089 3089 3089 3089 3089 3089 3089 3089 3090 3090 3090 3090 3090 3090 3090 3090 3090 3090 3090 3090 3090 3090 3090 3090 3090 3090
3090 3090 3090 3090 3089 3089 3089 3089 3088 3088 3087 3087 3087 3087 3087 3087 3086 3086 3086 3086 3086 3085 3085 3085 3084 3084 3084 3084 3084 3084 3084 3084 3084 3084 3084 3084 3084 3084 3084 3084 3085 3085 3085 3085 3085 3085 3086 3086 3086 3086 3086 3086 3087 3087 3087 3087 3087 3087 3087 3087 3087 3087 3087 3088 3088 3088 3088 3088 3088 3088 3088 3088 3089 3089 3089 3089 3089 3089 3089 3089 3089 3089 3089 3088 3088 3088
3088 3088 3088 3088 3087 3087 3086 3086 3085 3085 3085 3085 3085 3085 3084 3084 3084 3084 3084 3084 3084 3083 3083 3083 3082 3082 3082 3082 3083 3083 3083 3082 3082 3082 3082 3082 3083 3083 3083 3083 3083 3084 3084 3084 3084 3084 3085 3085 3085 3085 3085 3085 3085 3085 3085 3085 3085 3086 3086 3086 3086 3086 3086 3086 3086 3086 3086 3087 3087 3087 3087 3087 3087 3087 3087 3087 3087 3087 3087 3087 3087 3087 3087 3087 3087 3087
3085 3085 3085 3085 3085 3085 3084 3084 3084 3083 3083 3083 3082 3082 3082 3082 3082 3081 3081 3081 3081 3081 3081 3081 3081 3081 3081 3081 3081 3081 3081 3081 3081 3081 3081 3081 3081 3081 3082 3082 3082 3082 3083 3083 3083 3083 3083 3083 3084 3084 3084 3084 3084 3084 3084 3084 3084 3085 3085 3085 3085 3085 3085 3085 3085 3085 3085 3085 3085 3085 3085 3086 3086 3086 3086 3086 3086 3086 3086 3086 3086 3086 3086 3086 3086 3086
3083 3083 3083 3083 3083 3082 3082 3082 3082 3082 3081 3080 3080 3080 3080 3080 3080 3079 3079 3079 3079 3079 3079 3079 3079 3079 3079 3079 3080 3080 3080 3080 3080 3080 3080 3080 3080 3080 3080 3081 3081 3081 3081 3081 3081 3082 3082 3082 3082 3082 3082 3083 3083 3083 3083 3083 3083 3083 3083 3083 3084 3084 3084 3084 3084 3084 3084 3084 3084 3084 3084 3084 3085 3085 3085 3085 3085 3085 3085 3085 3085 3085 3085 3085 3085 3085
3080 3080 3080 3080 3080 3080 3080 3080 3080 3080 3079 3078 3078 3078 3078 3077 3077 3077 3077 3077 3077 3077 3077 3078 3078 3078 3078 3078 3078 3078 3078 3078 3078 3078 3079 3079 3079 3079 3079 3080 3080 3080 3080 3080 3080 3080 3081 3081 3081 3081 3081 3081 3081 3081 3082 3082 3082 3082 3082 3082 3082 3082 3082 3083 3083 3083 3083 3083 3083 3083 3083 3083 3083 3083 3083 3083 3083 3083 3083 3083 3083 3083 3083 3083 3083 3083
3078 3078 3078 3077 3077 3077 3077 3077 3077 3077 3077 3076 3076 3076 3076 3075 3075 3075 3075 3075 3076 3076 3076 3076 3076 3076 3077 3077 3077 3077 3077 3077 3077 3077 3077 3078 3078 3078 3078 3079 3079 3079 3079 3079 3079 3080 3080 3080 3080 3080 3080 3080 3080 3080 3080 3080 3081 3081 3081 3081 3081 3081 3081 3081 3081 3081 3081 3081 3082 3082 3082 3082 3082 3082 3082 3082 3082 3082 3082 3082 3082 3082 3082 3082 3082 3082
3075 3075 3075 3075 3075 3075 3075 3075 3075 3075 3074 3074 3074 3074 3074 3074 3074 3074 3074 3074 3074 3074 3074 3074 3075 3075 3075 3075 3075 3075 3075 3075 3076 3076 3076 3076 3077 3077 3077 3077 3078 3078 3078 3078 3078 3078 3079 3079 3079 3079 3079 3079 3079 3079 3079 3080 3080 3080 3080 3080 3080 3080 3080 3080 3080 3080 3080 3080 3080 3080 3080 3080 3080 3080 3080 3080 3080 3081 3081 3081 3081 3081 3081 3081 3081 3081
3073 3072 3072 3072 3072 3073 3073 3072 3072 3072 3072 3072 3072 3072 3072 3072 3072 3072 3072 3072 3072 3072 3073 3073 3073 3073 3073 3074 3074 3074 3074 3074 3075 3075 3075 3075 3075 3076 3076 3076 3076 3076 3077 3077 3077 3077 3078 3078 3078 3078 3078 3078 3078 3078 3078 3078 3079 3079 3079 3079 3079 3079 3079 3079 3079 3079 3079 3079 3079 3079 3079 3079 3079 3079 3079 3079 3079 3079 3079 3079 3079 3079 3079 3079 3079 3079
3070 3070 3070 3070 3070 3070 3070 3070 3070 3070 3070 3070 3070 3070 3070 3070 3070 3070 3070 3070 3071 3071 3071 3071 3071 3072 3072 3072 3072 3073 3073 3073 3074 3074 3074 3074 3074 3075 3075 3075 3075 3075 3075 3076 3076 3076 3076 3077 3077 3077 3077 3077 3077 3077 3077 3077 3077 3078 3078 3078 3078 3078 3078 3078 3078 3078 3078 3078 3078 3078 3078 3078 3078 3078 3078 3078 3078 3078 3078 3078 3078 3078 3078 3078 3078 3078
3068 3068 3068 3068 3068 3068 3068 3068 3068 3068 3068 3068 3068 3068 3068 3069 3069 3069 3069 3069 3069 3070 3070 3070 3070 3070 3070 3071 3071 3071 3072 3072 3072 3073 3073 3073 3073 3074 3074 3074 3074 3074 3075 3075 3075 3075 3075 3075 3075 3075 3076 3076 3076 3076 3076 3076 3076 3076 3076 3077 3077 3077 3077 3077 3077 3077 3077 3077 3077 3077 3077 3077 3077 3076 3076 3076 3076 3076 3076 3076 3076 3076 3076 3076 3076 3076
3065 3065 3065 3065 3066 3066 3066 3066 3066 3066 3066 3066 3066 3066 3066 3067 3067 3067 3067 3067 3068 3068 3068 3068 3069 3069 3069 3070 3070 3070 3070 3071 3071 3071 3072 3072 3072 3072 3073 3073 3073 3073 3073 3074 3074 3074 3074 3074 3074 3074 3075 3075 3075 3075 3075 3075 3075 3075 3075 3075 3075 3075 3075 3075 3075 3075 3075 3075 3075 3075 3075 3075 3075 3075 3075 3075 3075 3075 3075 3075 3075 3075 3075 3075 3075 3075
3063 3063 3063 3063 3064 3064 3064 3064 3064 3064 3065 3065 3065 3065 3065 3065 3065 3065 3065 3066 3066 3066 3067 3067 3067 3067 3068 3068 3069 3069 3069 3070 3070 3070 3070 3071 3071 3071 3071 3072 3072 3072 3072 3072 3072 3073 3073 3073 3073 3073 3073 3073 3073 3074 3074 3074 3074 3074 3074 3074 3074 3074 3074 3074 3074 3074 3074 3074 3074 3074 3074 3074 3074 3074 3074 3074 3074 3074 3074 3073 3073 3073 3073 3073 3073 3073
3061 3061 3061 3061 3061 3062 3062 3062 3062 3063 3063 3063 3063 3063 3063 3063 3064 3064 3064 3065 3065 3065 3065 3066 3066 3066 3067 3067 3067 3068 3068 3069 3069 3069 3069 3070 3070 3070 3070 3070 3071 3071 3071 3071 3071 3071 3071 3071 3072 3072 3072 3072 3072 3072 3072 3072 3072 3072 3073 3073 3073 3073 3073 3073 3073 3073 3073 3073 3073 3072 3072 3072 3072 3072 3072 3072 3072 3072 3072 3072 3072 3071 3071 3071 3071 3071
3059 3059 3059 3059 3059 3060 3060 3060 3060 3060 3061 3061 3061 3061 3061 3062 3062 3062 3063 3063 3063 3064 3064 3065 3065 3065 3066 3066 3066 3067 3067 3067 3068 3068 3068 3068 3069 3069 3069 3069 3070 3070 3070 3070 3070 3070 3070 3070 3070 3070 3070 3071 3071 3071 3071 3071 3071 3071 3071 3071 3071 3071 3071 3071 3071 3071 3071 3071 3071 3071 3071 3071 3071 3071 3071 3070 3070 3070 3070 3070 3070 3070 3070 3070 3070 3069
3057 3057 3057 3057 3057 3058 3058 3058 3059 3059 3059 3060 3060 3060 3060 3060 3060 3061 3061 3062 3062 3062 3063 3064 3064 3064 3065 3065 3065 3065 3066 3066 3066 3067 3067 3067 3067 3068 3068 3068 3068 3068 3068 3068 3068 3069 3069 3069 3069 3069 3069 3069 3069 3070 3070 3070 3070 3070 3070 3070 3070 3070 3070 3070 3070 3070 3070 3070 3070 3070 3069 3069 3069 3069 3069 3069 3069 3069 3069 3069 3068 3068 3068 3068 3068 3067
3055 3055 3055 3055 3055 3056 3056 3056 3057 3057 3058 3058 3058 3058 3059 3059 3060 3060 3060 3060 3061 3061 3062 3062 3063 3063 3063 3064 3064 3064 3065 3065 3065 3065 3065 3066 3066 3066 3066 3067 3067 3067 3067 3067 3067 3067 3068 3068 3068 3068 3068 3068 3068 3068 3068 3068 3068 3068 3068 3068 3068 3068 3068 3068 3068 3068 3068 3068 3068 3068 3068 3068 3068 3067 3067 3067 3067 3067 3067 3067 3067 3066 3066 3066 3066 3065
3052 3052 3053 3053 3054 3054 3055 3055 3055 3056 3056 3056 3057 3057 3057 3058 3059 3059 3059 3060 3060 3060 3061 3061 3062 3062 3062 3063 3063 3063 3063 3064 3064 3064 3065 3065 3065 3065 3065 3065 3065 3065 3065 3066 3066 3066 3066 3066 3066 3066 3067 3067 3067 3067 3067 3067 3067 3067 3067 3067 3067 3067 3067 3067 3067 3067 3066 3066 3066 3066 3066 3066 3066 3066 3066 3065 3065 3065 3065 3065 3065 3065 3064 3064 3064 3064
3050 3051 3051 3051 3052 3052 3053 3053 3054 3054 3055 3055 3055 3056 3056 3057 3057 3058 3058 3058 3059 3059 3060 3060 3061 3061 3061 3061 3062 3062 3062 3062 3063 3063 3063 3063 3064 3064 3064 3064 3064 3064 3064 3065 3065 3065 3065 3065 3065 3065 3065 3065 3065 3065 3065 3065 3065 3065 3065 3065 3065 3065 3065 3065 3065 3065 3065 3065 3065 3065 3065 3065 3064 3064 3064 3064 3064 3063 3063 3063 3063 3063 3062 3062 3062 3061
3049 3049 3049 3050 3050 3051 3051 3052 3052 3053 3053 3054 3054 3055 3055 3056 3056 3057 3057 3057 3058 3058 3059 3059 3060 3060 3060 3060 3060 3060 3061 3061 3061 3062 3062 3062 3062 3062 3062 3063 3063 3063 3063 3063 3063 3063 3064 3064 3064 3064 3064 3064 3064 3064 3064 3064 3064 3064 3064 3064 3064 3064 3064 3064 3063 3063 3063 3063 3063 3063 3063 3063 3062 3062 3062 3062 3062 3061 3061 3061 3061 3060 3060 3060 3060 3059
3046 3047 3048 3048 3049 3049 3050 3050 3051 3051 3052 3053 3053 3054 3055 3055 3055 3055 3056 3056 3057 3057 3058 3058 3058 3058 3059 3059 3059 3059 3060 3060 3060 3060 3060 3061 3061 3061 3061 3061 3061 3061 3061 3061 3062 3062 3062 3062 3062 3062 3062 3062 3062 3062 3062 3062 3062 3062 3062 3062 3062 3062 3062 3062 3062 3062 3061 3061 3061 3061 3061 3061 3060 3060 3060 3060 3060 3060 3059 3059 3059 3058 3058 3058 3057 3057
3045 3045 3046 3046 3047 3048 3049 3049 3050 3050 3051 3052 3052 3053 3053 3054 3054 3054 3055 3055 3055 3056 3056 3057 3057 3057 3057 3057 3058 3058 3058 3059 3059 3059 3059 3059 3060 3060 3060 3060 3060 3060 3060 3060 3060 3060 3060 3061 3060 3060 3061 3061 3061 3061 3061 3061 3061 3061 3061 3061 3061 3060 3060 3060 3060 3060 3060 3060 3060 3059 3059 3059 3059 3058 3058 3058 3057 3057 3057 3057 3056 3056 3056 3055 3055 3055
3043 3044 3045 3045 3046 3046 3047 3047 3048 3049 3050 3051 3051 3052 3052 3052 3053 3053 3053 3054 3054 3055 3055 3055 3056 3056 3056 3056 3056 3057 3057 3057 3057 3058 3058 3058 3058 3058 3058 3059 3059 3059 3058 3059 3059 3059 3059 3059 3059 3059 3059 3059 3059 3059 3059 3059 3059 3059 3059 3059 3059 3059 3059 3059 3058 3058 3058 3058 3058 3057 3057 3057 3057 3056 3056 3056 3055 3055 3055 3055 3054 3054 3054 3053 3053 3053
3042 3042 3043 3044 3044 3045 3045 3046 3047 3048 3049 3050 3050 3050 3050 3051 3051 3052 3052 3053 3053 3054 3054 3054 3055 3055 3055 3055 3055 3055 3056 3056 3056 3056 3056 3057 3057 3057 3057 3057 3057 3057 3057 3057 3057 3057 3058 3058 3058 3058 3058 3058 3058 3058 3058 3058 3058 3058 3058 3057 3057 3057 3057 3057 3057 3056 3056 3056 3056 3055 3055 3055 3055 3055 3054 3054 3054 3053 3053 3053 3052 3052 3051 3051 3051 3050
3040 3041 3041 3042 3043 3044 3045 3045 3046 3047 3048 3049 3049 3049 3049 3050 3050 3050 3051 3051 3052 3052 3053 3053 3053 3054 3054 3054 3054 3054 3054 3055 3055 3055 3055 3055 3055 3055 3055 3055 3055 3055 3055 3055 3056 3056 3056 3056 3056 3056 3056 3056 3056 3056 3056 3056 3056 3056 3056 3056 3055 3055 3055 3055 3055 3055 3055 3054 3054 3054 3053 3053 3053 3053 3052 3052 3052 3051 3051 3050 3050 3050 3049 3049 3049 3048
3039 3040 3040 3041 3042 3043 3044 3045 3045 3046 3047 3047 3047 3048 3048 3049 3049 3050 3050 3050 3051 3051 3051 3052 3052 3052 3052 3052 3053 3053 3053 3053 3053 3053 3054 3054 3054 3054 3054 3054 3054 3054 3054 3054 3054 3054 3054 3055 3055 3055 3055 3055 3054 3054 3054 3054 3054 3054 3054 3054 3054 3054 3053 3053 3053 3053 3053 3052 3052 3052 3051 3051 3051 3050 3050 3050 3050 3049 3049 3049 3048 3048 3047 3047 3046 3046
3038 3039 3040 3040 3041 3042 3043 3044 3044 3045 3045 3045 3046 3046 3047 3047 3048 3048 3049 3049 3050 3050 3050 3050 3050 3051 3051 3051 3051 3051 3051 3051 3052 3052 3052 3052 3052 3052 3052 3052 3053 3053 3053 3053 3053 3053 3053 3053 3053 3053 3053 3053 3053 3052 3052 3052 3052 3052 3052 3052 3052 3052 3051 3051 3051 3051 3051 3050 3050 3050 3050 3049 3049 3049 3048 3048 3048 3047 3047 3046 3046 3046 3045 3045 3045 3044
3037 3038 3039 3040 3040 3041 3042 3042 3043 3044 3044 3044 3045 3045 3045 3046 3046 3047 3047 3048 3048 3048 3049 3049 3049 3049 3050 3050 3050 3050 3050 3050 3050 3050 3050 3050 3050 3051 3051 3051 3051 3051 3051 3051 3051 3051 3051 3051 3051 3051 3051 3051 3051 3051 3050 3050 3050 3050 3050 3050 3050 3050 3050 3049 3049 3049 3049 3049 3048 3048 3048 3047 3047 3046 3046 3046 3045 3045 3045 3045 3044 3044 3044 3043 3043 3042
3036 3037 3038 3039 3039 3040 3041 3041 3042 3042 3043 3043 3044 3044 3044 3045 3045 3045 3046 3046 3047 3047 3047 3048 3048 3048 3048 3048 3048 3048 3048 3049 3049 3049 3049 3049 3049 3049 3049 3050 3050 3050 3050 3050 3050 3050 3050 3050 3050 3050 3050 3050 3049 3049 3049 3049 3049 3049 3048 3048 3048 3048 3048 3047 3047 3047 3047 3047 3046 3046 3045 3045 3045 3045 3044 3044 3043 3043 3043 3042 3042 3042 3042 3041 3041 3040
3035 3036 3037 3038 3038 3039 3040 3040 3041 3041 3041 3042 3042 3043 3043 3043 3044 3044 3045 3045 3045 3046 3046 3046 3046 3046 3047 3047 3047 3047 3047 3047 3047 3047 3047 3047 3048 3048 3048 3048 3048 3048 3048 3048 3048 3048 3048 3048 3048 3048 3048 3048 3048 3047 3047 3047 3047 3046 3046 3046 3046 3046 3045 3045 3045 3045 3045 3045 3044 3044 3044 3043 3043 3042 3042 3041 3041 3041 3041 3040 3040 3040 3040 3040 3039 3039
3034 3035 3036 3036 3037 3038 3039 3039 3040 3040 3040 3040 3041 3041 3042 3042 3042 3043 3043 3044 3044 3045 3045 3045 3045 3045 3045 3045 3045 3045 3045 3045 3045 3045 3046 3046 3046 3046 3046 3046 3046 3046 3046 3046 3046 3046 3046 3046 3046 3046 3046 3046 3046 3046 3045 3045 3045 3045 3045 3045 3044 3044 3044 3043 3043 3043 3043 3042 3042 3042 3041 3041 3040 3040 3040 3040 3039 3039 3039 3038 3038 3038 3038 3037 3037 3037
3033 3034 3035 3035 3036 3037 3037 3038 3038 3039 3039 3039 3040 3040 3040 3041 3041 3042 3042 3043 3043 3043 3044 3044 3044 3044 3044 3044 3044 3044 3044 3044 3044 3044 3044 3044 3045 3045 3045 3044 3044 3045 3045 3044 3044 3044 3044 3044 3044 3044 3044 3044 3044 3044 3044 3043 3043 3043 3043 3042 3042 3042 3042 3041 3041 3041 3041 3040 3040 3040 3039 3039 3038 3038 3038 3037 3037 3037 3036 3036 3036 3036 3035 3035 3035 3035
3032 3033 3034 3034 3035 3035 3036 3037 3037 3037 3038 3038 3038 3039 3039 3040 3040 3041 3041 3041 3042 3042 3042 3042 3042 3042 3042 3043 3043 3043 3043 3043 3043 3043 3043 3043 3043 3043 3043 3043 3043 3043 3043 3042 3042 3042 3042 3042 3042 3042 3042 3042 3042 3042 3041 3041 3041 3041 3040 3040 3040 3040 3040 3039 3039 3039 3039 3038 3038 3038 3037 3037 3036 3036 3035 3035 3035 3035 3034 3034 3034 3034 3033 3033 3033 3033
3031 3032 3033 3033 3034 3034 3035 3035 3036 3036 3037 3037 3037 3038 3038 3039 3039 3040 3040 3040 3040 3041 3041 3041 3041 3041 3041 3041 3041 3041 3041 3041 3041 3041 3041 3041 3041 3041 3041 3041 3041 3041 3041 3040 3040 3040 3040 3040 3040 3040 3040 3040 3040 3040 3040 3039 3039 3039 3039 3038 3038 3038 3037 3037 3037 3037 3037 3036 3036 3036 3035 3035 3034 3034 3033 3033 3033 3032 3032 3032 3031 3031 3031 3031 3031 3031
3030 3031 3031 3032 3033 3033 3034 3034 3035 3035 3035 3036 3036 3036 3037 3037 3038 3038 3039 3039 3039 3039 3040 3040 3040 3040 3040 3040 3040 3040 3040 3040 3040 3040 3040 3040 3040 3040 3040 3039 3039 3039 3039 3039 3039 3038 3038 3038 3038 3038 3037 3037 3037 3037 3037 3037 3037 3037 3037 3036 3036 3036 3035 3035 3035 3035 3035 3034 3034 3034 3033 3033 3032 3032 3031 3031 3030 3030 3030 3030 3029 3029 3029 3029 3028 3028
3029 3030 3030 3031 3031 3032 3033 3033 3034 3034 3034 3035 3035 3035 3036 3036 3037 3037 3037 3038 3038 3038 3038 3038 3038 3038 3038 3038 3038 3039 3039 3039 3038 3038 3038 3038 3038 3038 3038 3038 3037 3037 3037 3037 3037 3036 3036 3036 3036 3035 3035 3035 3035 3035 3035 3035 3035 3035 3035 3035 3034 3034 3033 3033 3033 3032 3032 3032 3032 3031 3031 3030 3030 3030 3029 3029 3028 3028 3028 3027 3027 3027 3026 3026 3026 3025
3028 3029 3029 3030 3030 3031 3031 3032 3032 3033 3033 3034 3034 3034 3035 3035 3035 3036 3036 3036 3036 3036 3036 3036 3036 3037 3037 3037 3037 3037 3037 3037 3037 3037 3037 3036 3036 3036 3036 3036 3035 3035 3035 3035 3035 3035 3034 3034 3034 3033 3033 3033 3033 3033 3032 3032 3032 3032 3032 3032 3032 3032 3031 3031 3030 3030 3030 3030 3030 3029 3029 3028 3028 3027 3027 3026 3026 3026 3025 3025 3025 3025 3024 3024 3024 3023
3027 3028 3028 3029 3029 3030 3030 3031 3031 3031 3032 3032 3033 3033 3034 3034 3035 3035 3035 3035 3035 3035 3035 3035 3035 3035 3035 3035 3035 3035 3035 3035 3035 3035 3035 3035 3035 3034 3034 3034 3034 3034 3033 3033 3033 3032 3032 3032 3032 3031 3031 3031 3030 3030 3030 3030 3030 3030 3030 3030 3030 3030 3030 3029 3029 3028 3027 3027 3027 3027 3026 3026 3025 3025 3025 3024 3024 3023 3023 3023 3023 3022 3022 3021 3021 3021
3026 3026 3027 3028 3028 3029 3029 3030 3030 3030 3031 3031 3032 3032 3033 3033 3033 3034 3034 3034 3034 3034 3034 3034 3034 3034 3034 3034 3034 3034 3034 3034 3034 3034 3033 3033 3033 3033 3032 3032 3032 3031 3031 3031 3031 3030 3030 3030 3030 3029 3029 3029 3029 3028 3028 3027 3027 3027 3027 3027 3027 3027 3027 3027 3026 3026 3025 3025 3025 3024 3024 3024 3023 3023 3022 3022 3021 3021 3021 3020 3020 3020 3019 3019 3019 3018
3025 3025 3026 3026 3027 3027 3028 3029 3029 3030 3030 3030 3031 3031 3031 3032 3032 3032 3032 3032 3032 3032 3032 3032 3032 3032 3032 3032 3032 3032 3032 3032 3032 3032 3031 3031 3031 3031 3030 3030 3030 3030 3029 3029 3029 3029 3028 3028 3028 3027 3027 3027 3026 3026 3025 3025 3024 3024 3024 3024 3025 3025 3025 3024 3024 3024 3023 3023 3022 3022 3022 3021 3021 3020 3020 3019 3019 3019 3018 3018 3018 3017 3017 3016 3016 3016
3024 3024 3025 3025 3026 3026 3027 3027 3028 3028 3029 3029 3030 3030 3030 3030 3030 3030 3031 3031 3030 3030 3030 3030 3030 3030 3030 3030 3030 3030 3030 3030 3030 3030 3030 3029 3029 3029 3028 3028 3028 3028 3027 3027 3027 3027 3027 3026 3026 3026 3025 3025 3025 3024 3023 3023 3022 3022 3021 3021 3022 3022 3022 3022 3021 3021 3021 3020 3020 3020 3019 3019 3018 3018 3017 3017 3016 3016 3016 3015 3015 3015 3014 3014 3014 3013
3022 3023 3023 3024 3025 3025 3025 3026 3026 3027 3027 3028 3028 3028 3029 3029 3029 3029 3029 3029 3029 3029 3029 3029 3029 3028 3028 3028 3028 3028 3028 3028 3028 3028 3028 3027 3027 3027 3026 3026 3026 3026 3025 3025 3025 3025 3025 3025 3025 3024 3024 3023 3023 3022 3021 3020 3020 3020 3019 3019 3019 3019 3019 3019 3018 3018 3018 3018 3017 3017 3017 3016 3016 3015 3015 3014 3014 3013 3013 3013 3012 3012 3012 3011 3011 3011
3021 3021 3022 3022 3023 3023 3024 3025 3025 3025 3026 3026 3026 3027 3027 3027 3027 3027 3027 3027 3027 3027 3027 3027 3027 3026 3026 3026 3026 3026 3026 3026 3026 3026 3026 3026 3025 3025 3024 3024 3024 3024 3023 3023 3023 3023 3023 3023 3022 3022 3021 3021 3020 3020 3019 3018 3018 3017 3017 3017 3016 3016 3016 3016 3015 3015 3015 3015 3015 3014 3014 3013 3013 3012 3012 3011 3011 3010 3010 3010 3009 3009 3009 3009 3008 3008
3019 3020 3020 3021 3021 3022 3022 3023 3023 3024 3024 3025 3025 3025 3025 3025 3025 3025 3025 3025 3025 3025 3025 3025 3025 3025 3025 3025 3024 3024 3024 3024 3024 3024 3024 3024 3023 3023 3022 3022 3021 3021 3021 3021 3021 3020 3020 3020 3020 3020 3019 3019 3018 3018 3017 3016 3015 3015 3015 3014 3014 3014 3013 3013 3012 3012 3012 3012 3011 3011 3011 3010 3010 3010 3009 3009 3008 3008 3007 3007 3006 3006 3006 3006 3005 3005
3018 3019 3019 3020 3020 3020 3021 3021 3022 3022 3023 3023 3023 3023 3023 3023 3024 3024 3024 3024 3024 3024 3023 3023 3023 3023 3023 3022 3022 3022 3022 3022 3022 3022 3021 3021 3021 3021 3020 3020 3020 3019 3019 3019 3018 3018 3018 3018 3017 3017 3016 3016 3015 3015 3015 3014 3014 3013 3012 3012 3012 3011 3011 3010 3010 3010 3009 3009 3009 3008 3008 3007 3007 3006 3006 3006 3005 3005 3005 3004 3003 3003 3003 3003 3003 3002
3017 3017 3018 3018 3019 3019 3020 3020 3020 3021 3021 3021 3021 3021 3021 3022 3022 3022 3022 3022 3022 3022 3021 3021 3021 3021 3021 3020 3020 3020 3020 3020 3019 3019 3019 3019 3019 3019 3019 3018 3018 3017 3017 3017 3016 3016 3016 3015 3015 3015 3014 3013 3013 3012 3012 3012 3012 3011 3010 3010 3010 3009 3008 3008 3007 3007 3006 3006 3005 3005 3005 3004 3004 3003 3003 3003 3002 3002 3002 3001 3001 3000 3000 3000 3000 3000
3015 3016 3016 3017 3017 3018 3018 3018 3019 3019 3019 3020 3020 3020 3020 3020 3020 3020 3020 3020 3020 3020 3020 3020 3019 3019 3019 3019 3018 3018 3018 3017 3017 3017 3017 3017 3017 3017 3017 3016 3016 3016 3015 3015 3015 3014 3014 3014 3013 3012 3012 3011 3010 3010 3010 3010 3010 3009 3009 3008 3007 3006 3006 3005 3005 3004 3003 3003 3002 3002 3001 3001 3000 3000 3000 3000 3000 3000 3000 2999 2999 2998 2997 2997 2997 2996